Home   Weather   Gijón   Past weeks

Flag for Spain Past Weather in Gijón, Spain — Yesterday and Last 2 Weeks

Now
61 °F

Clear.


Feels Like: 61 °F
Forecast: 65 / 77 °F
Wind: 1 mph from Southeast

Location: Asturias / Aviles

Current Time: Aug 21, 2017 at 6:51:46 am

Latest Report: Aug 21, 2017 at 6:30 am


Visibility: 10 mi

Pressure: 30.07 "Hg

Humidity: 94%

Dew Point: 59 °F

Location of GijónLocation

Past Weather in Gijón — Graph

°F

Gijón Temperature Yesterday

Maximum temperature yesterday: 73 °F (at 12:30 pm)
Minimum temperature yesterday: 59 °F (at 4:00 am)
Average temperature yesterday: 66 °F

High & Low Weather Summary for the Past Weeks

 TemperatureHumidityPressure
High75 °F (Aug 17, 2:00 pm)100% (Aug 7, 11:00 am)30.39 "Hg (Aug 7, 11:00 am)
Low54 °F (Aug 11, 7:30 am)57% (Aug 20, 3:30 pm)29.89 "Hg (Aug 14, 7:00 am)
Average65 °F83%30.18 "Hg
* Reported Aug 6 5:00 am — Aug 21 5:30 am, Gijón. Weather by CustomWeather, © 2017

Note: Actual official high and low records may vary slightly from our data, if they occured in-between our weather recording intervals... More about our weather records

Advertising

Gijón Weather History for the Previous 24 Hours

Scroll right to see more
 ConditionsComfort  
Time TempWeatherWind HumidityBarometerVisibility
5:30 am
Mon, Aug 21
59 °FCool.1 mph94%30.09 "Hg4 mi
5:00 am59 °FCool.No wind94%30.09 "Hg4 mi
4:30 am61 °FCool.1 mph94%30.09 "Hg4 mi
4:00 am61 °FCool.2 mph94%30.12 "Hg4 mi
3:30 am61 °FCool.1 mph94%30.12 "Hg4 mi
3:00 am61 °FCool.3 mph94%30.12 "Hg4 mi
2:00 am61 °FClear.2 mph94%30.12 "Hg10 mi
1:30 am61 °FClear.2 mph94%30.12 "Hg10 mi
1:00 am61 °FClear.1 mph94%30.15 "Hg10 mi
12:30 am63 °FClear.5 mph94%30.15 "Hg10 mi
12:00 am63 °FPassing clouds.3 mph94%30.15 "HgN/A
11:30 pm
Sun, Aug 20
63 °FPassing clouds.3 mph94%30.15 "HgN/A
11:00 pm64 °FClear.6 mph88%30.15 "Hg10 mi
10:30 pm64 °FPassing clouds.5 mph88%30.15 "HgN/A
10:00 pm64 °FClear.5 mph88%30.15 "Hg10 mi
9:30 pm66 °FClear.7 mph83%30.15 "Hg10 mi
9:00 pm66 °FSunny.8 mph83%30.15 "Hg10 mi
8:30 pm68 °FPassing clouds.10 mph78%30.15 "HgN/A
8:00 pm70 °FPassing clouds.9 mph73%30.15 "HgN/A
7:30 pm70 °FPassing clouds.10 mph73%30.15 "HgN/A
7:00 pm72 °FPassing clouds.13 mph69%30.18 "HgN/A
6:30 pm72 °FPassing clouds.15 mph69%30.18 "HgN/A
6:00 pm72 °FPassing clouds.15 mph69%30.18 "HgN/A
5:30 pm72 °FPassing clouds.14 mph69%30.18 "HgN/A
5:00 pm72 °FPassing clouds.16 mph69%30.21 "HgN/A
4:30 pm73 °FPassing clouds.15 mph65%30.21 "HgN/A
4:00 pm73 °FPassing clouds.15 mph61%30.21 "HgN/A
3:30 pm73 °FPassing clouds.15 mph57%30.21 "HgN/A
3:00 pm73 °FPassing clouds.14 mph61%30.21 "HgN/A
2:30 pm73 °FPassing clouds.15 mph61%30.21 "HgN/A
2:00 pm73 °FPassing clouds.13 mph61%30.24 "HgN/A
1:30 pm73 °FPassing clouds.10 mph61%30.21 "HgN/A
1:00 pm73 °FPassing clouds.12 mph61%30.21 "HgN/A
12:30 pm73 °FPassing clouds.12 mph61%30.24 "HgN/A
12:00 pm72 °FPassing clouds.12 mph65%30.24 "HgN/A
11:30 am70 °FPassing clouds.10 mph69%30.24 "HgN/A
11:00 am68 °FPassing clouds.12 mph73%30.24 "HgN/A
10:30 am66 °FPassing clouds.10 mph78%30.24 "HgN/A
10:00 am66 °FPassing clouds.6 mph83%30.24 "HgN/A
9:30 am64 °FPassing clouds.3 mph88%30.24 "HgN/A
9:00 am64 °FPassing clouds.3 mph83%30.24 "HgN/A
8:30 am63 °FSunny.3 mph88%30.24 "Hg10 mi
8:00 am59 °FPassing clouds.3 mph94%30.24 "HgN/A
7:30 am59 °FClear.1 mph94%30.24 "Hg10 mi
7:00 am59 °FClear.No wind94%30.24 "Hg10 mi
6:30 am59 °FClear.No wind94%30.24 "Hg10 mi
6:00 am61 °FClear.2 mph94%30.24 "Hg10 mi
Weather by CustomWeather, © 2017

See weather overviewHow to use our weather pages